Voltar ao catálogo

COSMOS 1867 COOLANT

AtivoLEO
NORAD 43324·DEBRIS·🇷🇺 Russia

Lançado Jul 10, 1987 de Baikonur Cosmodrome

Loading…

Próximas Passagens (próximas 24 horas)

TLE

AtualizadoSource: Space-Track

Época: Sep 13, 2026, 06:06 UTC

1 43324U 87060AR  26256.25453659  .00000140  00000-0  86224-4 0  9998
2 43324  65.0055 125.9456 0019083 282.9326  76.9628 14.33838714637527

Acompanhe COSMOS 1867 COOLANT em tempo real com AllMySat

Download on the App Store